"read_dt","SO2 (ppb)","flags","PMT voltage (V)","lamp voltage (V)","lamp intensity (Hz)","internal temp (C)","react chamber temp (C)","sample flow (l/min)","pres (mmHg)","SO2 bkg (ppb)","SO2 coefficient"
2016-11-18 00:00:00,1950E-3,5C000000,-0724,0831,12084,029.8,045.5,0.431,735.3,01.18,0.508
2016-11-18 00:01:00,1901E-3,5C000000,-0724,0830,12162,029.8,045.5,0.431,735.4,01.18,0.508
2016-11-18 00:02:00,1759E-3,5C000000,-0724,0831,12224,029.9,045.5,0.431,735.4,01.18,0.508
2016-11-18 00:03:00,1708E-3,5C000000,-0724,0830,12036,029.9,045.5,0.431,735.4,01.18,0.508
2016-11-18 00:04:00,1786E-3,5C000000,-0724,0832,12162,029.9,045.5,0.431,735.4,01.18,0.508
2016-11-18 00:05:00,1709E-3,5C000000,-0724,0830,12087,029.9,045.5,0.431,735.4,01.18,0.508
2016-11-18 00:06:00,1745E-3,5C000000,-0724,0831,12161,029.9,045.5,0.430,735.4,01.18,0.508
2016-11-18 00:07:00,1540E-3,5C000000,-0724,0831,12181,029.9,045.5,0.431,735.3,01.18,0.508
2016-11-18 00:08:00,1691E-3,5C000000,-0724,0831,12074,029.9,045.5,0.431,735.4,01.18,0.508
2016-11-18 00:09:00,1713E-3,5C000000,-0724,0830,12157,029.9,045.5,0.431,735.4,01.18,0.508
2016-11-18 00:10:00,1776E-3,5C000000,-0724,0830,12046,029.9,045.5,0.431,735.4,01.18,0.508
2016-11-18 00:11:00,1804E-3,5C000000,-0724,0830,12083,029.9,045.5,0.431,735.4,01.18,0.508
2016-11-18 00:12:00,1809E-3,5C000000,-0724,0831,12238,029.9,045.5,0.431,735.5,01.18,0.508
2016-11-18 00:13:00,1957E-3,5C000000,-0724,0831,12186,029.9,045.5,0.431,735.5,01.18,0.508
2016-11-18 00:14:00,1884E-3,5C000000,-0724,0830,12134,029.9,045.5,0.430,735.5,01.18,0.508
2016-11-18 00:15:00,1969E-3,5C000000,-0724,0831,12142,029.9,045.5,0.431,735.5,01.18,0.508
2016-11-18 00:16:00,1829E-3,5C000000,-0724,0831,12107,029.9,045.5,0.431,735.5,01.18,0.508
2016-11-18 00:17:00,1852E-3,5C000000,-0724,0830,12078,029.9,045.5,0.431,735.5,01.18,0.508
2016-11-18 00:18:00,1800E-3,5C000000,-0724,0830,12144,029.9,045.5,0.431,735.5,01.18,0.508
2016-11-18 00:19:00,1742E-3,5C000000,-0724,0831,12047,029.9,045.5,0.431,735.5,01.18,0.508
2016-11-18 00:20:00,1713E-3,5C000000,-0724,0830,12236,029.9,045.5,0.431,735.5,01.18,0.508
2016-11-18 00:21:00,1783E-3,5C000000,-0724,0830,12107,029.9,045.5,0.431,735.5,01.18,0.508
2016-11-18 00:22:00,2003E-3,5C000000,-0724,0830,12101,030.0,045.5,0.431,735.5,01.18,0.508
2016-11-18 00:23:00,2025E-3,5C000000,-0724,0830,12287,030.0,045.5,0.431,735.5,01.18,0.508
2016-11-18 00:24:00,1869E-3,5C000000,-0724,0830,12115,030.0,045.5,0.431,735.5,01.18,0.508
2016-11-18 00:25:00,1825E-3,5C000000,-0724,0831,12227,030.0,045.5,0.430,735.4,01.18,0.508
2016-11-18 00:26:00,2155E-3,5C000000,-0724,0831,12003,030.0,045.5,0.431,735.5,01.18,0.508
2016-11-18 00:27:00,2352E-3,5C000000,-0724,0830,12201,030.0,045.5,0.431,735.5,01.18,0.508
2016-11-18 00:28:00,2727E-3,5C000000,-0724,0831,12126,030.0,045.5,0.430,735.5,01.18,0.508
2016-11-18 00:29:00,2436E-3,5C000000,-0724,0831,12164,030.1,045.5,0.430,735.5,01.18,0.508
2016-11-18 00:30:00,2315E-3,5C000000,-0724,0830,12225,030.1,045.5,0.431,735.5,01.18,0.508
2016-11-18 00:31:00,2150E-3,5C000000,-0724,0832,12199,030.1,045.5,0.431,735.5,01.18,0.508
2016-11-18 00:32:00,2093E-3,5C000000,-0724,0831,12186,030.1,045.5,0.430,735.5,01.18,0.508
2016-11-18 00:33:00,1945E-3,5C000000,-0724,0831,12143,030.1,045.5,0.430,735.5,01.18,0.508
2016-11-18 00:34:00,1623E-3,5C000000,-0724,0831,12009,030.1,045.5,0.431,735.5,01.18,0.508
2016-11-18 00:35:00,1670E-3,5C000000,-0724,0832,12239,030.1,045.5,0.431,735.5,01.18,0.508
2016-11-18 00:36:00,1663E-3,5C000000,-0724,0831,12301,030.2,045.5,0.430,735.5,01.18,0.508
2016-11-18 00:37:00,1678E-3,5C000000,-0724,0831,12149,030.2,045.5,0.431,735.5,01.18,0.508
2016-11-18 00:38:00,1614E-3,5C000000,-0724,0831,12253,030.2,045.5,0.431,735.5,01.18,0.508
2016-11-18 00:39:00,1620E-3,5C000000,-0724,0830,12084,030.3,045.5,0.430,735.5,01.18,0.508
2016-11-18 00:40:00,1593E-3,5C000000,-0724,0832,12168,030.3,045.5,0.431,735.5,01.18,0.508
2016-11-18 00:41:00,1609E-3,5C000000,-0724,0831,12051,030.3,045.5,0.431,735.5,01.18,0.508
2016-11-18 00:42:00,1677E-3,5C000000,-0724,0831,12209,030.3,045.5,0.430,735.6,01.18,0.508
2016-11-18 00:43:00,1620E-3,5C000000,-0724,0832,12085,030.3,045.5,0.430,735.6,01.18,0.508
2016-11-18 00:44:00,1575E-3,5C000000,-0724,0831,12067,030.3,045.5,0.431,735.6,01.18,0.508
2016-11-18 00:45:00,1563E-3,5C000000,-0724,0832,12259,030.3,045.5,0.431,735.6,01.18,0.508
2016-11-18 00:46:00,1679E-3,5C000000,-0724,0831,12088,030.4,045.5,0.430,735.6,01.18,0.508
2016-11-18 00:47:00,1735E-3,5C000000,-0724,0831,12158,030.3,045.5,0.431,735.6,01.18,0.508
2016-11-18 00:48:00,1744E-3,5C000000,-0724,0830,11994,030.4,045.5,0.430,735.6,01.18,0.508
2016-11-18 00:49:00,1732E-3,5C000000,-0724,0831,12079,030.4,045.5,0.430,735.6,01.18,0.508
2016-11-18 00:50:00,1623E-3,5C000000,-0724,0831,12140,030.4,045.5,0.430,735.6,01.18,0.508
2016-11-18 00:51:00,1695E-3,5C000000,-0724,0831,12141,030.4,045.5,0.431,735.6,01.18,0.508
2016-11-18 00:52:00,1737E-3,5C000000,-0724,0831,12074,030.4,045.5,0.430,735.6,01.18,0.508
2016-11-18 00:53:00,1748E-3,5C000000,-0724,0830,12060,030.4,045.5,0.430,735.6,01.18,0.508
2016-11-18 00:54:00,1752E-3,5C000000,-0724,0832,12120,030.4,045.5,0.431,735.5,01.18,0.508
2016-11-18 00:55:00,1639E-3,5C000000,-0724,0831,12072,030.4,045.5,0.430,735.6,01.18,0.508
2016-11-18 00:56:00,1843E-3,5C000000,-0724,0831,12012,030.5,045.5,0.431,735.6,01.18,0.508
2016-11-18 00:57:00,1716E-3,5C000000,-0724,0831,12105,030.5,045.5,0.430,735.6,01.18,0.508
2016-11-18 00:58:00,1763E-3,5C000000,-0724,0832,12228,030.5,045.5,0.430,735.6,01.18,0.508
2016-11-18 00:59:00,1699E-3,5C000000,-0724,0831,12213,030.6,045.5,0.431,735.6,01.18,0.508
2016-11-18 01:00:00,1596E-3,5C000000,-0724,0832,12104,030.6,045.5,0.430,735.6,01.18,0.508
2016-11-18 01:01:00,1628E-3,5C000000,-0724,0831,12204,030.6,045.5,0.431,735.6,01.18,0.508
2016-11-18 01:02:00,1656E-3,5C000000,-0724,0831,12039,030.6,045.5,0.430,735.5,01.18,0.508
2016-11-18 01:03:00,1643E-3,5C000000,-0724,0832,12064,030.6,045.5,0.430,735.5,01.18,0.508
2016-11-18 01:04:00,1478E-3,5C000000,-0724,0831,12052,030.6,045.5,0.431,735.5,01.18,0.508
2016-11-18 01:05:00,1574E-3,5C000000,-0724,0831,12098,030.6,045.5,0.430,735.5,01.18,0.508
2016-11-18 01:06:00,1549E-3,5C000000,-0724,0831,12046,030.6,045.5,0.430,735.4,01.18,0.508
2016-11-18 01:07:00,1686E-3,5C000000,-0724,0831,12162,030.6,045.5,0.430,735.5,01.18,0.508
2016-11-18 01:08:00,1515E-3,5C000000,-0724,0831,12131,030.7,045.5,0.430,735.4,01.18,0.508
2016-11-18 01:09:00,1687E-3,5C000000,-0724,0831,12035,030.7,045.5,0.430,735.5,01.18,0.508
2016-11-18 01:10:00,1610E-3,5C000000,-0724,0831,12166,030.7,045.5,0.430,735.5,01.18,0.508
2016-11-18 01:11:00,1628E-3,5C000000,-0724,0832,12100,030.7,045.5,0.430,735.5,01.18,0.508
2016-11-18 01:12:00,1565E-3,5C000000,-0724,0832,12119,030.6,045.5,0.430,735.5,01.18,0.508
2016-11-18 01:13:00,1571E-3,5C000000,-0724,0831,12183,030.7,045.5,0.429,735.5,01.18,0.508
2016-11-18 01:14:00,1536E-3,5C000000,-0724,0831,12178,030.7,045.5,0.430,735.5,01.18,0.508
2016-11-18 01:15:00,1636E-3,5C000000,-0724,0831,12047,030.8,045.5,0.430,735.5,01.18,0.508
2016-11-18 01:16:00,1710E-3,5C000000,-0724,0832,12205,030.8,045.5,0.430,735.5,01.18,0.508
2016-11-18 01:17:00,1633E-3,5C000000,-0724,0831,12026,030.8,045.5,0.430,735.5,01.18,0.508
2016-11-18 01:18:00,1596E-3,5C000000,-0724,0831,12249,030.8,045.5,0.430,735.5,01.18,0.508
2016-11-18 01:19:00,1595E-3,5C000000,-0724,0831,12050,030.8,045.5,0.430,735.5,01.18,0.508
2016-11-18 01:20:00,1732E-3,5C000000,-0724,0830,12207,030.9,045.5,0.430,735.5,01.18,0.508
2016-11-18 01:21:00,1681E-3,5C000000,-0724,0831,12120,030.9,045.5,0.430,735.5,01.18,0.508
2016-11-18 01:22:00,1666E-3,5C000000,-0724,0830,12124,030.9,045.5,0.430,735.5,01.18,0.508
2016-11-18 01:23:00,1588E-3,5C000000,-0724,0831,12070,030.9,045.5,0.430,735.4,01.18,0.508
2016-11-18 01:24:00,1748E-3,5C000000,-0724,0831,12275,030.9,045.5,0.430,735.5,01.18,0.508
2016-11-18 01:25:00,1660E-3,5C000000,-0724,0831,12126,030.9,045.5,0.429,735.4,01.18,0.508
2016-11-18 01:26:00,1517E-3,5C000000,-0724,0831,12191,030.9,045.6,0.430,735.4,01.18,0.508
2016-11-18 01:27:00,1706E-3,5C000000,-0724,0831,11991,030.9,045.6,0.430,735.4,01.18,0.508
2016-11-18 01:28:00,1604E-3,5C000000,-0724,0831,12018,030.8,045.6,0.430,735.4,01.18,0.508
2016-11-18 01:29:00,1622E-3,5C000000,-0724,0831,12214,030.8,045.5,0.429,735.4,01.18,0.508
2016-11-18 01:30:00,1581E-3,5C000000,-0724,0831,12092,030.9,045.5,0.430,735.4,01.18,0.508
2016-11-18 01:31:00,1542E-3,5C000000,-0724,0832,12073,030.9,045.5,0.430,735.4,01.18,0.508
2016-11-18 01:32:00,1698E-3,5C000000,-0724,0831,12241,030.9,045.6,0.430,735.4,01.18,0.508
2016-11-18 01:33:00,1726E-3,5C000000,-0724,0831,12315,030.9,045.6,0.430,735.4,01.18,0.508
2016-11-18 01:34:00,1799E-3,5C000000,-0724,0831,12094,030.9,045.5,0.430,735.3,01.18,0.508
2016-11-18 01:35:00,1952E-3,5C000000,-0724,0832,12111,030.9,045.6,0.430,735.3,01.18,0.508
2016-11-18 01:36:00,1873E-3,5C000000,-0724,0830,12112,030.9,045.6,0.430,735.3,01.18,0.508
2016-11-18 01:37:00,1732E-3,5C000000,-0724,0831,12164,030.9,045.6,0.430,735.4,01.18,0.508
2016-11-18 01:38:00,1759E-3,5C000000,-0724,0831,12190,031.0,045.5,0.430,735.5,01.18,0.508
2016-11-18 01:39:00,1719E-3,5C000000,-0724,0831,11980,030.9,045.5,0.430,735.5,01.18,0.508
2016-11-18 01:40:00,1629E-3,5C000000,-0724,0831,12098,031.0,045.6,0.429,735.5,01.18,0.508
2016-11-18 01:41:00,1700E-3,5C000000,-0724,0831,12180,030.9,045.6,0.430,735.5,01.18,0.508
2016-11-18 01:42:00,1842E-3,5C000000,-0724,0830,12184,031.0,045.5,0.430,735.4,01.18,0.508
2016-11-18 01:43:00,1995E-3,5C000000,-0724,0832,12037,031.0,045.5,0.430,735.5,01.18,0.508
2016-11-18 01:44:00,2078E-3,5C000000,-0724,0831,12142,031.0,045.5,0.430,735.4,01.18,0.508
2016-11-18 01:45:00,2328E-3,5C000000,-0724,0832,12157,031.0,045.5,0.430,735.5,01.18,0.508
2016-11-18 01:46:00,2623E-3,5C000000,-0724,0832,12012,031.0,045.5,0.430,735.4,01.18,0.508
2016-11-18 01:47:00,2314E-3,5C000000,-0724,0831,12139,031.0,045.6,0.430,735.5,01.18,0.508
2016-11-18 01:48:00,1949E-3,5C000000,-0724,0831,12123,031.0,045.6,0.429,735.5,01.18,0.508
2016-11-18 01:49:00,1906E-3,5C000000,-0724,0831,11900,031.0,045.6,0.430,735.5,01.18,0.508
2016-11-18 01:50:00,1645E-3,5C000000,-0724,0831,12046,031.0,045.5,0.430,735.5,01.18,0.508
2016-11-18 01:51:00,1691E-3,5C000000,-0724,0831,12077,031.0,045.5,0.429,735.6,01.18,0.508
2016-11-18 01:52:00,1704E-3,5C000000,-0724,0831,12186,031.0,045.5,0.430,735.6,01.18,0.508
2016-11-18 01:53:00,1607E-3,5C000000,-0724,0831,12173,031.0,045.5,0.430,735.6,01.18,0.508
2016-11-18 01:54:00,1683E-3,5C000000,-0724,0831,12111,031.0,045.5,0.430,735.6,01.18,0.508
2016-11-18 01:55:00,1641E-3,5C000000,-0724,0831,12077,031.0,045.5,0.430,735.6,01.18,0.508
2016-11-18 01:56:00,1668E-3,5C000000,-0724,0831,12172,031.0,045.5,0.430,735.6,01.18,0.508
2016-11-18 01:57:00,1786E-3,5C000000,-0724,0831,12113,031.1,045.5,0.430,735.6,01.18,0.508
2016-11-18 01:58:00,1797E-3,5C000000,-0724,0831,12275,031.1,045.6,0.430,735.6,01.18,0.508
2016-11-18 01:59:00,1702E-3,5C000000,-0724,0831,12239,031.1,045.5,0.430,735.6,01.18,0.508
2016-11-18 02:00:00,1527E-3,5C000000,-0724,0831,12088,031.1,045.5,0.430,735.6,01.18,0.508
2016-11-18 02:01:00,1777E-3,5C000000,-0724,0830,12144,031.1,045.5,0.430,735.7,01.18,0.508
2016-11-18 02:02:00,1682E-3,5C000000,-0724,0831,12099,031.1,045.5,0.430,735.6,01.18,0.508
2016-11-18 02:03:00,1687E-3,5C000000,-0724,0830,12173,031.1,045.6,0.430,735.6,01.18,0.508
2016-11-18 02:04:00,1805E-3,5C000000,-0724,0831,12200,031.1,045.6,0.430,735.6,01.18,0.508
2016-11-18 02:05:00,2468E-3,5C000000,-0724,0831,12043,031.1,045.5,0.430,735.7,01.18,0.508
2016-11-18 02:06:00,2814E-3,5C000000,-0724,0831,12133,031.1,045.5,0.430,735.7,01.18,0.508
2016-11-18 02:07:00,2829E-3,5C000000,-0724,0831,12039,031.1,045.5,0.430,735.7,01.18,0.508
2016-11-18 02:08:00,2448E-3,5C000000,-0724,0831,12179,031.1,045.5,0.430,735.7,01.18,0.508
2016-11-18 02:09:00,2283E-3,5C000000,-0724,0830,12280,031.1,045.6,0.430,735.7,01.18,0.508
2016-11-18 02:10:00,2336E-3,5C000000,-0724,0831,12085,031.1,045.6,0.429,735.7,01.18,0.508
2016-11-18 02:11:00,2728E-3,5C000000,-0724,0830,12015,031.1,045.6,0.430,735.6,01.18,0.508
2016-11-18 02:12:00,3062E-3,5C000000,-0724,0830,12135,031.1,045.5,0.430,735.7,01.18,0.508
2016-11-18 02:13:00,3227E-3,5C000000,-0724,0831,12208,031.1,045.5,0.429,735.6,01.18,0.508
2016-11-18 02:14:00,3178E-3,5C000000,-0724,0829,12020,031.1,045.5,0.430,735.6,01.18,0.508
2016-11-18 02:15:00,3013E-3,5C000000,-0724,0830,12054,031.1,045.5,0.430,735.7,01.18,0.508
2016-11-18 02:16:00,3199E-3,5C000000,-0724,0831,12161,031.1,045.5,0.430,735.6,01.18,0.508
2016-11-18 02:17:00,3309E-3,5C000000,-0724,0831,12053,031.1,045.5,0.430,735.6,01.18,0.508
2016-11-18 02:18:00,3158E-3,5C000000,-0724,0831,12179,031.1,045.5,0.430,735.6,01.18,0.508
2016-11-18 02:19:00,3099E-3,5C000000,-0724,0831,12304,031.1,045.6,0.430,735.6,01.18,0.508
2016-11-18 02:20:00,3158E-3,5C000000,-0724,0830,12088,031.1,045.6,0.430,735.7,01.18,0.508
2016-11-18 02:21:00,3477E-3,5C000000,-0724,0831,12140,031.1,045.5,0.430,735.7,01.18,0.508
2016-11-18 02:22:00,3477E-3,5C000000,-0724,0831,12025,031.1,045.6,0.430,735.7,01.18,0.508
2016-11-18 02:23:00,3483E-3,5C000000,-0724,0830,12138,031.1,045.6,0.430,735.7,01.18,0.508
2016-11-18 02:24:00,3390E-3,5C000000,-0724,0831,12125,031.1,045.5,0.430,735.6,01.18,0.508
2016-11-18 02:25:00,3408E-3,5C000000,-0724,0830,12149,031.1,045.5,0.430,735.6,01.18,0.508
2016-11-18 02:26:00,3389E-3,5C000000,-0724,0830,12135,031.1,045.5,0.430,735.6,01.18,0.508
2016-11-18 02:27:00,3312E-3,5C000000,-0724,0831,12064,031.1,045.5,0.430,735.7,01.18,0.508
2016-11-18 02:28:00,2726E-3,5C000000,-0724,0831,12034,031.1,045.5,0.430,735.6,01.18,0.508
2016-11-18 02:29:00,2463E-3,5C000000,-0724,0832,12158,031.1,045.5,0.430,735.6,01.18,0.508
2016-11-18 02:30:00,2902E-3,5C000000,-0724,0831,12150,031.1,045.5,0.430,735.6,01.18,0.508
2016-11-18 02:31:00,3251E-3,5C000000,-0724,0831,12144,031.1,045.5,0.430,735.7,01.18,0.508
2016-11-18 02:32:00,3710E-3,5C000000,-0724,0831,12048,031.1,045.5,0.430,735.6,01.18,0.508
2016-11-18 02:33:00,3343E-3,5C000000,-0724,0831,12120,031.1,045.5,0.429,735.6,01.18,0.508
2016-11-18 02:34:00,3070E-3,5C000000,-0724,0831,12117,031.1,045.5,0.430,735.6,01.18,0.508
2016-11-18 02:35:00,3221E-3,5C000000,-0724,0831,12152,031.2,045.5,0.430,735.7,01.18,0.508
2016-11-18 02:36:00,3637E-3,5C000000,-0724,0831,12074,031.2,045.5,0.430,735.6,01.18,0.508
2016-11-18 02:37:00,3510E-3,5C000000,-0724,0831,12098,031.2,045.5,0.430,735.7,01.18,0.508
2016-11-18 02:38:00,3105E-3,5C000000,-0724,0831,12131,031.2,045.5,0.430,735.7,01.18,0.508
2016-11-18 02:39:00,2902E-3,5C000000,-0724,0830,12035,031.2,045.5,0.430,735.6,01.18,0.508
2016-11-18 02:40:00,2834E-3,5C000000,-0724,0831,12122,031.2,045.5,0.430,735.7,01.18,0.508
2016-11-18 02:41:00,2665E-3,5C000000,-0724,0831,12076,031.2,045.5,0.430,735.7,01.18,0.508
2016-11-18 02:42:00,2836E-3,5C000000,-0724,0831,12123,031.2,045.5,0.430,735.6,01.18,0.508
2016-11-18 02:43:00,2756E-3,5C000000,-0724,0830,12118,031.2,045.5,0.430,735.6,01.18,0.508
2016-11-18 02:44:00,2693E-3,5C000000,-0724,0831,12095,031.2,045.5,0.430,735.7,01.18,0.508
2016-11-18 02:45:00,3185E-3,5C000000,-0724,0831,12068,031.2,045.6,0.430,735.7,01.18,0.508
2016-11-18 02:46:00,3507E-3,5C000000,-0724,0831,12154,031.2,045.6,0.430,735.6,01.18,0.508
2016-11-18 02:47:00,3480E-3,5C000000,-0724,0831,12164,031.2,045.5,0.430,735.6,01.18,0.508
2016-11-18 02:48:00,3693E-3,5C000000,-0724,0831,12180,031.2,045.5,0.430,735.6,01.18,0.508
2016-11-18 02:49:00,3369E-3,5C000000,-0724,0831,12136,031.2,045.5,0.430,735.6,01.18,0.508
2016-11-18 02:50:00,3187E-3,5C000000,-0724,0831,12126,031.2,045.5,0.430,735.6,01.18,0.508
2016-11-18 02:51:00,2996E-3,5C000000,-0724,0831,12078,031.2,045.6,0.430,735.6,01.18,0.508
2016-11-18 02:52:00,2673E-3,5C000000,-0724,0830,12025,031.2,045.6,0.430,735.6,01.18,0.508
2016-11-18 02:53:00,2624E-3,5C000000,-0724,0831,12169,031.2,045.6,0.430,735.6,01.18,0.508
2016-11-18 02:54:00,2269E-3,5C000000,-0724,0831,12153,031.2,045.5,0.430,735.6,01.18,0.508
2016-11-18 02:55:00,2077E-3,5C000000,-0724,0832,12147,031.2,045.6,0.430,735.5,01.18,0.508
2016-11-18 02:56:00,2158E-3,5C000000,-0724,0831,12134,031.2,045.6,0.430,735.5,01.18,0.508
2016-11-18 02:57:00,2054E-3,5C000000,-0724,0831,12188,031.2,045.6,0.430,735.6,01.18,0.508
2016-11-18 02:58:00,1879E-3,5C000000,-0724,0830,12201,031.2,045.6,0.430,735.6,01.18,0.508
2016-11-18 02:59:00,1948E-3,5C000000,-0724,0830,12120,031.2,045.5,0.430,735.5,01.18,0.508
2016-11-18 03:00:00,1740E-3,5C000000,-0724,0831,12004,031.2,045.5,0.430,735.5,01.18,0.508
2016-11-18 03:01:00,2051E-3,5C000000,-0724,0830,12141,031.2,045.5,0.430,735.5,01.18,0.508
2016-11-18 03:02:00,1909E-3,5C000000,-0724,0832,12079,031.2,045.5,0.429,735.5,01.18,0.508
2016-11-18 03:03:00,1836E-3,5C000000,-0724,0831,12177,031.2,045.5,0.430,735.5,01.18,0.508
2016-11-18 03:04:00,1788E-3,5C000000,-0724,0832,12141,031.2,045.6,0.430,735.4,01.18,0.508
2016-11-18 03:05:00,1838E-3,5C000000,-0724,0831,12245,031.2,045.6,0.430,735.5,01.18,0.508
2016-11-18 03:06:00,2155E-3,5C000000,-0724,0831,12092,031.2,045.5,0.430,735.5,01.18,0.508
2016-11-18 03:07:00,2214E-3,5C000000,-0724,0831,12147,031.2,045.6,0.430,735.5,01.18,0.508
2016-11-18 03:08:00,2196E-3,5C000000,-0724,0831,12126,031.2,045.6,0.430,735.5,01.18,0.508
2016-11-18 03:09:00,1925E-3,5C000000,-0724,0831,12148,031.2,045.6,0.430,735.5,01.18,0.508
2016-11-18 03:10:00,1833E-3,5C000000,-0724,0830,12137,031.2,045.6,0.430,735.5,01.18,0.508
2016-11-18 03:11:00,1710E-3,5C000000,-0724,0831,12099,031.2,045.6,0.430,735.5,01.18,0.508
2016-11-18 03:12:00,1850E-3,5C000000,-0724,0832,12174,031.2,045.5,0.430,735.5,01.18,0.508
2016-11-18 03:13:00,2075E-3,5C000000,-0724,0831,11172,031.2,045.5,0.430,735.6,01.18,0.508
2016-11-18 03:14:00,1872E-3,5C000000,-0724,0830,11947,031.2,045.5,0.430,735.5,01.18,0.508
2016-11-18 03:15:00,1792E-3,5C000000,-0724,0831,12181,031.2,045.5,0.430,735.5,01.18,0.508
2016-11-18 03:16:00,1763E-3,5C000000,-0724,0831,12152,031.2,045.6,0.430,735.5,01.18,0.508
2016-11-18 03:17:00,1699E-3,5C000000,-0724,0831,12115,031.2,045.5,0.430,735.5,01.18,0.508
2016-11-18 03:18:00,1644E-3,5C000000,-0724,0831,12196,031.2,045.6,0.430,735.5,01.18,0.508
2016-11-18 03:19:00,1587E-3,5C000000,-0724,0830,12153,031.2,045.6,0.430,735.6,01.18,0.508
2016-11-18 03:20:00,1683E-3,5C000000,-0724,0832,12101,031.2,045.5,0.430,735.5,01.18,0.508
2016-11-18 03:21:00,1856E-3,5C000000,-0724,0832,12339,031.2,045.6,0.430,735.5,01.18,0.508
2016-11-18 03:22:00,2105E-3,5C000000,-0724,0831,12079,031.2,045.5,0.430,735.5,01.18,0.508
2016-11-18 03:23:00,2213E-3,5C000000,-0724,0831,12129,031.2,045.6,0.430,735.5,01.18,0.508
2016-11-18 03:24:00,2127E-3,5C000000,-0724,0832,12180,031.2,045.5,0.430,735.5,01.18,0.508
2016-11-18 03:25:00,1923E-3,5C000000,-0724,0831,12026,031.2,045.5,0.430,735.5,01.18,0.508
2016-11-18 03:26:00,1724E-3,5C000000,-0724,0830,12057,031.2,045.6,0.430,735.4,01.18,0.508
2016-11-18 03:27:00,1645E-3,5C000000,-0724,0831,12074,031.2,045.6,0.430,735.4,01.18,0.508
2016-11-18 03:28:00,1788E-3,5C000000,-0724,0830,12086,031.2,045.5,0.430,735.5,01.18,0.508
2016-11-18 03:29:00,1927E-3,5C000000,-0724,0831,12233,031.2,045.6,0.430,735.5,01.18,0.508
2016-11-18 03:30:00,2020E-3,5C000000,-0724,0831,12016,031.2,045.6,0.430,735.4,01.18,0.508
2016-11-18 03:31:00,1909E-3,5C000000,-0724,0832,12069,031.2,045.6,0.430,735.5,01.18,0.508
2016-11-18 03:32:00,1777E-3,5C000000,-0724,0830,12205,031.2,045.5,0.430,735.4,01.18,0.508
2016-11-18 03:33:00,1807E-3,5C000000,-0724,0831,12113,031.2,045.6,0.430,735.5,01.18,0.508
2016-11-18 03:34:00,2025E-3,5C000000,-0724,0830,12032,031.2,045.6,0.430,735.5,01.18,0.508
2016-11-18 03:35:00,2756E-3,5C000000,-0724,0831,12240,031.2,045.5,0.430,735.5,01.18,0.508
2016-11-18 03:36:00,2969E-3,5C000000,-0724,0831,12058,031.2,045.6,0.430,735.5,01.18,0.508
2016-11-18 03:37:00,3014E-3,5C000000,-0724,0831,12125,031.2,045.6,0.430,735.5,01.18,0.508
2016-11-18 03:38:00,2628E-3,5C000000,-0724,0831,12214,031.2,045.5,0.430,735.5,01.18,0.508
2016-11-18 03:39:00,1979E-3,5C000000,-0724,0831,12125,031.2,045.6,0.430,735.4,01.18,0.508
2016-11-18 03:40:00,1755E-3,5C000000,-0724,0831,12231,031.2,045.6,0.430,735.5,01.18,0.508
2016-11-18 03:41:00,1719E-3,5C000000,-0724,0832,12133,031.2,045.6,0.430,735.4,01.18,0.508
2016-11-18 03:42:00,1678E-3,5C000000,-0724,0831,12228,031.2,045.5,0.430,735.4,01.18,0.508
2016-11-18 03:43:00,1791E-3,5C000000,-0724,0831,12114,031.2,045.5,0.431,735.4,01.18,0.508
2016-11-18 03:44:00,1613E-3,5C000000,-0724,0832,12173,031.2,045.5,0.430,735.4,01.18,0.508
2016-11-18 03:45:00,1567E-3,5C000000,-0724,0831,12017,031.2,045.6,0.430,735.4,01.18,0.508
2016-11-18 03:46:00,1637E-3,5C000000,-0724,0831,12058,031.2,045.5,0.430,735.4,01.18,0.508
2016-11-18 03:47:00,1603E-3,5C000000,-0724,0831,12061,031.2,045.6,0.431,735.4,01.18,0.508
2016-11-18 03:48:00,1562E-3,5C000000,-0724,0830,11962,031.2,045.6,0.430,735.4,01.18,0.508
2016-11-18 03:49:00,1572E-3,5C000000,-0724,0831,11984,031.2,045.6,0.430,735.4,01.18,0.508
2016-11-18 03:50:00,1538E-3,5C000000,-0724,0832,12200,031.2,045.6,0.431,735.5,01.18,0.508
2016-11-18 03:51:00,1641E-3,5C000000,-0724,0831,12026,031.2,045.6,0.430,735.5,01.18,0.508
2016-11-18 03:52:00,1571E-3,5C000000,-0724,0831,12121,031.2,045.5,0.430,735.4,01.18,0.508
2016-11-18 03:53:00,1674E-3,5C000000,-0724,0829,12113,031.2,045.5,0.431,735.5,01.18,0.508
2016-11-18 03:54:00,1454E-3,5C000000,-0724,0830,12223,031.2,045.6,0.430,735.5,01.18,0.508
2016-11-18 03:55:00,1524E-3,5C000000,-0724,0830,12234,031.2,045.6,0.430,735.5,01.18,0.508
2016-11-18 03:56:00,1711E-3,5C000000,-0724,0829,12085,031.2,045.6,0.430,735.5,01.18,0.508
2016-11-18 03:57:00,1642E-3,5C000000,-0724,0830,12311,031.2,045.6,0.431,735.5,01.18,0.508
2016-11-18 03:58:00,1570E-3,5C000000,-0724,0831,12006,031.2,045.6,0.430,735.6,01.18,0.508
2016-11-18 03:59:00,1588E-3,5C000000,-0724,0830,12181,031.2,045.6,0.430,735.5,01.18,0.508
2016-11-18 04:00:00,1605E-3,5C000000,-0724,0830,12187,031.1,045.5,0.430,735.5,01.18,0.508
2016-11-18 04:01:00,1611E-3,5C000000,-0724,0830,12223,031.1,045.5,0.431,735.5,01.18,0.508
2016-11-18 04:02:00,1553E-3,5C000000,-0724,0830,12191,031.1,045.6,0.430,735.5,01.18,0.508
2016-11-18 04:03:00,1519E-3,5C000000,-0724,0831,12253,031.1,045.6,0.430,735.4,01.18,0.508
2016-11-18 04:04:00,1470E-3,5C000000,-0724,0830,12227,031.1,045.6,0.431,735.5,01.18,0.508
2016-11-18 04:05:00,1628E-3,5C000000,-0724,0830,12144,031.1,045.6,0.431,735.5,01.18,0.508
2016-11-18 04:06:00,1568E-3,5C000000,-0724,0830,12227,031.1,045.5,0.430,735.4,01.18,0.508
2016-11-18 04:07:00,1703E-3,5C000000,-0724,0830,12134,031.1,045.5,0.430,735.5,01.18,0.508
2016-11-18 04:08:00,1651E-3,5C000000,-0724,0829,11932,031.1,045.5,0.431,735.4,01.18,0.508
2016-11-18 04:09:00,1495E-3,5C000000,-0724,0830,12232,031.1,045.6,0.430,735.5,01.18,0.508
2016-11-18 04:10:00,1507E-3,5C000000,-0724,0831,12096,031.1,045.5,0.430,735.4,01.18,0.508
2016-11-18 04:11:00,1587E-3,5C000000,-0724,0830,12168,031.1,045.5,0.431,735.5,01.18,0.508
2016-11-18 04:12:00,1551E-3,5C000000,-0724,0832,11962,031.1,045.5,0.431,735.5,01.18,0.508
2016-11-18 04:13:00,1552E-3,5C000000,-0724,0830,12176,031.1,045.5,0.430,735.5,01.18,0.508
2016-11-18 04:14:00,1622E-3,5C000000,-0724,0830,11970,031.1,045.5,0.430,735.5,01.18,0.508
2016-11-18 04:15:00,1662E-3,5C000000,-0724,0830,12117,031.1,045.5,0.431,735.5,01.18,0.508
2016-11-18 04:16:00,1652E-3,5C000000,-0724,0830,12061,031.1,045.5,0.430,735.4,01.18,0.508
2016-11-18 04:17:00,1590E-3,5C000000,-0724,0830,12119,031.1,045.5,0.430,735.5,01.18,0.508
2016-11-18 04:18:00,1590E-3,5C000000,-0724,0830,12052,031.1,045.6,0.430,735.4,01.18,0.508
2016-11-18 04:19:00,1535E-3,5C000000,-0724,0831,12122,031.1,045.5,0.431,735.4,01.18,0.508
2016-11-18 04:20:00,1501E-3,5C000000,-0724,0830,12096,031.1,045.5,0.431,735.5,01.18,0.508